When you browse on this site, cookies collect data to enhance your experience and personalize the content and advertising you see.
Visit our Privacy Policy to learn more. By continuing to use the site, you agree to this use of cookies and data.
  • In Romania
  • List of Countries
  • For 7 days
  • Water Temperature
  • Satellite Maps
  • Weather Map
  • Weather Widgets
  • user-avatar
    Login

    Hourly Weather Maskat

    Today, 17 July, Wednesday

    Time Temperature Precipitation Wind Pressure Humidity
    00:00 +36°C° 0 mm 3 mps 742 mmHg 46%
    01:00 +36°C° 0 mm 3 mps 742 mmHg 46%
    02:00 +35°C° 0 mm 3 mps 742 mmHg 50%
    03:00 +34°C° 0 mm 2 mps 742 mmHg 53%
    04:00 +32°C° 0 mm 2 mps 742 mmHg 59%
    05:00 +34°C° 0 mm 2 mps 742 mmHg 57%
    06:00 +35°C° 0 mm 2 mps 743 mmHg 54%
    07:00 +36°C° 0 mm 3 mps 743 mmHg 52%
    08:00 +37°C° 0 mm 3 mps 743 mmHg 52%
    09:00 +38°C° 0 mm 4 mps 743 mmHg 52%
    10:00 +40°C° 0 mm 4 mps 743 mmHg 52%
    11:00 +41°C° 0 mm 4 mps 743 mmHg 48%
    12:00 +42°C° 0 mm 4 mps 743 mmHg 44%
    13:00 +43°C° 0 mm 4 mps 742 mmHg 41%
    14:00 +43°C° 0 mm 4 mps 742 mmHg 38%
    15:00 +43°C° 0 mm 4 mps 741 mmHg 35%
    16:00 +43°C° 0 mm 4 mps 741 mmHg 33%
    17:00 +40°C° 0 mm 3 mps 741 mmHg 39%
    18:00 +39°C° 0 mm 2 mps 742 mmHg 45%
    19:00 +36°C° 0 mm 1 mps 742 mmHg 52%
    20:00 +36°C° 0 mm 2 mps 742 mmHg 54%
    21:00 +35°C° 0 mm 3 mps 743 mmHg 57%
    22:00 +35°C° 0 mm 4 mps 743 mmHg 60%
    23:00 +34°C° 0 mm 3 mps 743 mmHg 60%

    Tomorrow, 18 July, Thursday

    Time Temperature Precipitation Wind Pressure Humidity
    00:00 +34°C° 0 mm 2 mps 743 mmHg 61%
    01:00 +33°C° 0 mm 1 mps 743 mmHg 61%
    02:00 +33°C° 0 mm 1 mps 742 mmHg 59%
    03:00 +33°C° 0 mm 1 mps 742 mmHg 57%
    04:00 +32°C° 0 mm 1 mps 742 mmHg 54%
    05:00 +34°C° 0 mm 2 mps 742 mmHg 59%
    06:00 +34°C° 0 mm 2 mps 742 mmHg 63%
    07:00 +34°C° 0 mm 3 mps 743 mmHg 67%
    08:00 +35°C° 0 mm 3 mps 743 mmHg 63%
    09:00 +36°C° 0 mm 3 mps 743 mmHg 59%
    10:00 +37°C° 0 mm 4 mps 743 mmHg 56%
    11:00 +38°C° 0 mm 4 mps 743 mmHg 54%
    12:00 +38°C° 0 mm 4 mps 743 mmHg 52%
    13:00 +40°C° 0 mm 4 mps 742 mmHg 50%
    14:00 +39°C° 0 mm 3 mps 742 mmHg 48%
    15:00 +39°C° 0 mm 3 mps 741 mmHg 46%
    16:00 +39°C° 0 mm 2 mps 741 mmHg 44%
    17:00 +38°C° 0 mm 2 mps 741 mmHg 48%
    18:00 +37°C° 0 mm 2 mps 741 mmHg 53%
    19:00 +35°C° 0 mm 2 mps 741 mmHg 57%
    20:00 +35°C° 0 mm 2 mps 742 mmHg 56%
    21:00 +35°C° 0 mm 2 mps 742 mmHg 55%
    22:00 +35°C° 0 mm 2 mps 742 mmHg 54%
    23:00 +33°C° 0 mm 1 mps 742 mmHg 59%

    Day after tomorrow, 19 July, Friday

    Time Temperature Precipitation Wind Pressure Humidity
    00:00 +32°C° 0 mm 1 mps 742 mmHg 63%
    01:00 +32°C° 0 mm 1 mps 741 mmHg 68%
    02:00 +31°C° 0 mm 1 mps 741 mmHg 70%
    03:00 +31°C° 0 mm 1 mps 742 mmHg 72%
    04:00 +30°C° 0 mm 1 mps 742 mmHg 73%
    05:00 +31°C° 0 mm 1 mps 742 mmHg 70%
    06:00 +32°C° 0 mm 2 mps 742 mmHg 66%
    07:00 +34°C° 0 mm 2 mps 743 mmHg 62%
    08:00 +35°C° 0 mm 2 mps 743 mmHg 59%
    09:00 +36°C° 0 mm 2 mps 743 mmHg 57%
    10:00 +37°C° 0 mm 2 mps 743 mmHg 54%
    11:00 +38°C° 0 mm 3 mps 743 mmHg 50%
    12:00 +39°C° 0 mm 3 mps 742 mmHg 46%
    13:00 +41°C° 0 mm 4 mps 742 mmHg 43%
    14:00 +41°C° 0 mm 4 mps 742 mmHg 42%
    15:00 +41°C° 0 mm 4 mps 741 mmHg 42%
    16:00 +41°C° 0 mm 4 mps 741 mmHg 42%
    17:00 +38°C° 0 mm 3 mps 741 mmHg 48%
    18:00 +37°C° 0 mm 3 mps 741 mmHg 54%
    19:00 +35°C° 0 mm 3 mps 741 mmHg 59%
    20:00 +35°C° 0 mm 3 mps 742 mmHg 60%
    21:00 +34°C° 0 mm 3 mps 742 mmHg 61%
    22:00 +34°C° 0 mm 3 mps 743 mmHg 62%
    23:00 +32°C° 0 mm 2 mps 743 mmHg 67%

    20 July, Saturday

    Time Temperature Precipitation Wind Pressure Humidity
    00:00 +31°C° 0 mm 2 mps 743 mmHg 72%
    01:00 +31°C° 0 mm 2 mps 743 mmHg 76%
    02:00 +31°C° 0 mm 2 mps 743 mmHg 76%
    03:00 +31°C° 0 mm 3 mps 743 mmHg 75%
    04:00 +31°C° 0 mm 3 mps 743 mmHg 74%
    05:00 +31°C° 0 mm 3 mps 743 mmHg 71%
    06:00 +33°C° 0 mm 3 mps 743 mmHg 69%
    07:00 +33°C° 0 mm 3 mps 744 mmHg 66%
    08:00 +35°C° 0 mm 3 mps 744 mmHg 62%
    09:00 +36°C° 0 mm 3 mps 744 mmHg 58%
    10:00 +37°C° 0 mm 3 mps 744 mmHg 54%
    11:00 +38°C° 0 mm 4 mps 744 mmHg 52%
    12:00 +40°C° 0 mm 4 mps 744 mmHg 49%
    13:00 +40°C° 0 mm 4 mps 743 mmHg 47%
    14:00 +40°C° 0 mm 4 mps 743 mmHg 47%
    15:00 +40°C° 0 mm 5 mps 743 mmHg 47%
    16:00 +40°C° 0 mm 5 mps 742 mmHg 46%
    17:00 +37°C° 0 mm 4 mps 742 mmHg 50%
    18:00 +36°C° 0 mm 4 mps 743 mmHg 53%
    19:00 +35°C° 0 mm 3 mps 743 mmHg 56%
    20:00 +35°C° 0 mm 3 mps 743 mmHg 55%
    21:00 +35°C° 0 mm 2 mps 743 mmHg 55%
    22:00 +34°C° 0 mm 1 mps 743 mmHg 54%
    23:00 +34°C° 0 mm 2 mps 743 mmHg 59%

    21 July, Sunday

    Time Temperature Precipitation Wind Pressure Humidity
    00:00 +33°C° 0 mm 3 mps 743 mmHg 64%
    01:00 +31°C° 0 mm 3 mps 743 mmHg 69%
    02:00 +31°C° 0 mm 3 mps 743 mmHg 70%
    03:00 +31°C° 0 mm 3 mps 743 mmHg 70%
    04:00 +31°C° 0 mm 2 mps 743 mmHg 71%
    05:00 +31°C° 0 mm 2 mps 743 mmHg 71%
    06:00 +31°C° 0 mm 2 mps 743 mmHg 70%
    07:00 +32°C° 0 mm 2 mps 743 mmHg 70%
    08:00 +34°C° 0 mm 2 mps 744 mmHg 64%
    09:00 +36°C° 0 mm 2 mps 744 mmHg 59%
    10:00 +37°C° 0 mm 3 mps 744 mmHg 54%
    11:00 +38°C° 0 mm 3 mps 743 mmHg 51%
    12:00 +39°C° 0 mm 3 mps 743 mmHg 48%
    13:00 +41°C° 0 mm 4 mps 742 mmHg 46%
    14:00 +40°C° 0 mm 4 mps 742 mmHg 48%
    15:00 +38°C° 0 mm 4 mps 741 mmHg 50%
    16:00 +38°C° 0 mm 4 mps 741 mmHg 52%
    17:00 +37°C° 0 mm 4 mps 741 mmHg 54%
    18:00 +36°C° 0 mm 3 mps 741 mmHg 55%
    19:00 +35°C° 0 mm 3 mps 741 mmHg 57%
    20:00 +34°C° 0 mm 3 mps 742 mmHg 62%
    21:00 +33°C° 0 mm 3 mps 742 mmHg 66%
    22:00 +33°C° 0 mm 3 mps 743 mmHg 71%
    23:00 +33°C° 0 mm 3 mps 742 mmHg 69%

    22 July, Monday

    Time Temperature Precipitation Wind Pressure Humidity
    00:00 +31°C° 0 mm 2 mps 742 mmHg 68%
    01:00 +31°C° 0 mm 2 mps 742 mmHg 67%
    02:00 +31°C° 0 mm 2 mps 742 mmHg 68%
    03:00 +31°C° 0 mm 1 mps 742 mmHg 68%
    04:00 +31°C° 0 mm 1 mps 741 mmHg 69%
    05:00 +31°C° 0 mm 1 mps 742 mmHg 71%
    06:00 +31°C° 0 mm 2 mps 742 mmHg 72%
    07:00 +31°C° 0 mm 2 mps 742 mmHg 73%
    08:00 +34°C° 0 mm 2 mps 742 mmHg 66%
    09:00 +36°C° 0 mm 3 mps 743 mmHg 59%
    10:00 +37°C° 0 mm 3 mps 743 mmHg 53%
    11:00 +37°C° 0 mm 3 mps 742 mmHg 52%
    12:00 +38°C° 0 mm 3 mps 742 mmHg 52%
    13:00 +38°C° 0 mm 4 mps 741 mmHg 51%
    14:00 +38°C° 0 mm 4 mps 741 mmHg 51%
    15:00 +38°C° 0 mm 4 mps 740 mmHg 50%
    16:00 +38°C° 0 mm 4 mps 740 mmHg 49%
    17:00 +36°C° 0 mm 3 mps 740 mmHg 55%
    18:00 +35°C° 0 mm 3 mps 740 mmHg 60%
    19:00 +34°C° 0 mm 3 mps 740 mmHg 66%
    20:00 +32°C° 0 mm 2 mps 741 mmHg 67%
    21:00 +32°C° 0 mm 2 mps 741 mmHg 68%
    22:00 +32°C° 0 mm 1 mps 741 mmHg 70%
    23:00 +31°C° 0 mm 1 mps 741 mmHg 71%
    Show more